[[{"header":{"parameterUnit":"m.s-1","parameterCategory":1,"la1":30.2991,"la2":30.254,"lo1":-89.0895,"lo2":-89.0444,"dy":0.0017,"dx":0.0017,"nx":28,"ny":28,"refTime":"2023-10-05T21:00:00:Z","depth":0,"parameterNumber":2,"parameterNumberName":"U-component_of_WINDS"},"data":[0,0,0,0,0,0,0,0,0,0,0,0,0,0,0,0,0,0,0,0,0,0,0,0,0,0,0,0,0,0,0,0,0,0,0,0,0,0,0,0,0,0,0,0,0,0,0,0,0,0,0,0,0,0,0,0,0,0,-0.9718,-0.972,0,-0.9981,-0.9984,-0.9987,-1.0099,-1.0098,-1.0098,-1.0097,-1.0373,-1.038,-1.0388,0,0,0,0,0,0,0,0,0,0,0,0,0,-0.9314,-0.9321,-0.9717,-0.9721,-0.9724,-0.9981,-0.9984,-0.9988,-1.0099,-1.0098,-1.0098,-1.0097,-1.037,-1.0379,-1.0389,0,0,0,0,0,0,0,0,0,0,0,0,0,-0.9524,-0.9323,-0.9717,-0.981,-0.9821,-0.998,-0.9985,-0.9989,-1.0099,-1.0098,-1.0098,-1.0097,-1.0367,-1.0378,-1.039,-1.0477,0,0,-1.0426,-1.0431,0,0,0,0,0,0,0,0,-0.9512,-0.9539,-0.9793,-0.9804,-0.9816,-1.0006,-0.9943,-1.0153,-1.0099,-0.9994,-1.0097,-1.0097,-1.0252,-1.0273,-1.0324,-1.049,-1.0502,-1.0427,-1.0434,-1.0439,-1.0442,0,0,0,0,0,0,0,-0.9498,-0.9528,-0.9822,-0.9797,-0.9811,-0.984,-0.9869,-0.9983,-1.0124,-1.0003,-1.0012,-1.0041,-1.0258,-1.0313,-1.0331,-1.0506,-1.0426,-1.0437,-1.0444,-1.0449,-1.0757,-1.0758,0,0,0,0,0,0,-0.9467,-0.9516,-0.9814,-0.983,-0.9659,-0.9848,-0.9881,-0.9946,-1.0123,-1.0149,-1.0041,-1.0045,-1.0293,-1.0318,-1.0342,-1.0455,-1.0439,-1.045,-1.0456,-1.0755,-1.0757,-1.0758,0,0,0,0,0,0,-0.9458,-0.9492,-0.9803,-0.9675,-0.9717,-0.9856,-0.9929,-0.9952,-1.0007,-1.0152,-1.0178,-1.0071,-1.0293,-1.0325,-1.0442,-1.0466,-1.0455,-1.0466,-1.0754,-1.0756,-1.0757,-1.0683,0,0,0,0,0,0,-0.9446,-0.9489,-0.9522,-0.9675,-0.9723,-0.9898,-0.993,-0.9958,-1.0026,-1.0033,-1.0187,-1.0212,-1.0295,-1.0424,-1.0454,-1.0482,-1.0475,-1.0753,-1.0755,-1.0757,-1.0684,-1.0682,-1.068,0,0,0,0,0,-0.9431,-0.9492,-0.9523,-0.9559,-0.9768,-0.9899,-0.9927,-1.002,-1.0027,-1.0063,-1.0156,-1.0207,-1.0458,-1.0435,-1.047,-1.0502,-1.0751,-1.0754,-1.0757,-1.0685,-1.0682,-1.068,0,0,0,0,0,0,-0.9341,-0.9514,-0.9551,-0.9663,-0.9765,-0.9917,-0.9965,-1.0015,-1.0119,-1.0122,-1.0235,-1.0269,-1.0376,-1.0451,-1.0422,-1.0595,-1.0609,-1.0619,-1.0543,-1.0542,-1.054,-1.052,-1.0484,0,0,0,0,0,-0.9334,-0.9424,-0.9571,-0.9656,-0.9705,-0.9826,-0.9886,-0.9949,-1.0061,-1.0105,-1.0207,-1.0314,-1.0418,-1.0484,-1.0587,-1.0695,-1.073,-1.0734,-1.0732,-1.073,-1.0737,-1.0799,-1.0803,-1.0767,-1.0767,-1.0767,0,0,-0.9321,-0.9426,-0.9477,-0.964,-0.9727,-0.9819,-0.9862,-0.9958,-1.0028,-1.0121,-1.0237,-1.0315,-1.0442,-1.0555,-1.061,-1.062,-1.0755,-1.0733,-1.073,-1.0739,-1.0802,-1.0806,-1.0809,-1.0768,-1.0768,-1.0768,0,0,-0.9344,-0.9432,-0.9512,-0.9598,-0.9727,-0.9807,-0.9826,-0.9971,-1.0026,-1.0144,-1.0215,-1.03,-1.0476,-1.0564,-1.0631,-1.0685,-1.0736,-1.0716,-1.0707,-1.0766,-1.0769,-1.0772,-1.0791,-1.0797,-1.0722,-1.0722,-1.0722,0,-0.9312,-0.9452,-0.9548,-0.9639,-0.9709,-0.9795,-0.9877,-0.9956,-1.0113,-1.016,-1.017,-1.0391,-1.0483,-1.0617,-1.0629,-1.0681,-1.0707,-1.0699,-1.076,-1.0764,-1.0769,-1.0789,-1.0795,-1.0719,-1.0719,-1.072,-1.072,0,-0.9406,-0.9502,-0.9551,-0.9698,-0.9774,-0.986,-0.997,-1.0035,-1.0091,-1.017,-1.0289,-1.0402,-1.0529,-1.0565,-1.0622,-1.0707,-1.071,-1.0738,-1.0754,-1.0767,-1.0788,-1.0796,-1.0714,-1.0715,-1.0716,-1.0717,0,0,-0.9382,-0.9579,-0.9596,-0.9663,-0.9811,-0.9888,-0.9978,-1.0101,-1.0154,-1.026,-1.0339,-1.0484,-1.0511,-1.0588,-1.0655,-1.0706,-1.0742,-1.0729,-1.0734,-1.0728,-1.0843,-1.082,-1.0828,-1.0775,-1.0777,-1.0779,-1.0832,0,-0.9426,-0.9589,-0.9677,-0.9804,-0.9894,-0.9975,-1.0054,-1.0154,-1.023,-1.0318,-1.0403,-1.0504,-1.0532,-1.0578,-1.0633,-1.0725,-1.0766,-1.0723,-1.0851,-1.0855,-1.0817,-1.0839,-1.0816,-1.0861,-1.0841,-1.0842,-1.0843,0,-0.9499,-0.96,-0.9735,-0.9871,-0.9913,-0.9981,-1.01,-1.0183,-1.0298,-1.035,-1.0433,-1.0499,-1.0599,-1.0606,-1.0745,-1.0713,-1.0771,-1.0824,-1.0828,-1.0844,-1.085,-1.0856,-1.0878,-1.0884,-1.0857,-1.0856,-1.0855,0,-0.9468,-0.9638,-0.974,-0.9796,-0.9958,-1.0004,-1.0074,-1.0188,-1.0256,-1.036,-1.0405,-1.052,-1.0583,-1.0671,-1.0766,-1.0762,-1.0895,-1.0911,-1.0942,-1.0939,-1.0967,-1.0964,-1.0999,-1.1003,-1.1003,-1.1002,-1.1002,0,-0.9508,-0.9587,-0.9728,-0.9791,-0.9883,-0.9983,-1.0071,-1.0148,-1.0249,-1.0329,-1.0407,-1.0481,-1.0602,-1.0692,-1.0767,-1.087,-1.0899,-1.0944,-1.0963,-1.0937,-1.0931,-1.0977,-1.0977,-1.1004,-1.1004,-1.1004,-1.1003,0,-0.9489,-0.9587,-0.9704,-0.9846,-0.9884,-0.9945,-1.0068,-1.0133,-1.0211,-1.0312,-1.0341,-1.0466,-1.0575,-1.0678,-1.0825,-1.0875,-1.0979,-1.1004,-1.0939,-1.095,-1.0975,-1.0971,-1.1041,-1.1056,-1.1048,-1.1048,-1.1048,0,-0.9508,-0.9571,-0.9719,-0.9777,-0.9844,-0.9938,-1.0006,-1.0107,-1.0175,-1.031,-1.0359,-1.0473,-1.057,-1.0741,-1.0845,-1.0958,-1.0986,-1.1003,-1.1004,-1.0975,-1.0987,-1.0982,-1.0989,-1.1001,-1.1,-1.1,-1.1,0,-0.9532,-0.9577,-0.9671,-0.9782,-0.986,-0.9953,-1.0049,-1.0092,-1.0212,-1.0285,-1.0396,-1.0471,-1.0619,-1.0732,-1.0856,-1.093,-1.0985,-1.0998,-1.1011,-1.0986,-1.0946,-1.0968,-1.0934,-1.0996,-1.0997,-1.0997,-1.0997,-1.0997,-0.9534,-0.9593,-0.9705,-0.9808,-0.9889,-0.9976,-1.0044,-1.0129,-1.0223,-1.035,-1.0404,-1.0517,-1.063,-1.0802,-1.0875,-1.0965,-1.0978,-1.0997,-1.1002,-1.1006,-1.1,-1.093,-1.0988,-1.0989,-1.0989,-1.0989,-1.0989,0,-0.9562,-0.9638,-0.973,-0.986,-0.994,-0.9982,-1.009,-1.0155,-1.0252,-1.0352,-1.0445,-1.0572,-1.0681,-1.0793,-1.0909,-1.096,-1.0988,-1.0987,-1.0985,-1.1001,-1.0982,-1.0959,-1.0962,-1.0962,-1.0962,-1.0962,-1.0962,-1.0962,-0.9586,-0.9688,-0.9745,-0.9888,-0.9964,-1.0073,-1.013,-1.0211,-1.0291,-1.0429,-1.0519,-1.059,-1.0696,-1.0819,-1.0922,-1.0952,-1.0992,-1.0983,-1.102,-1.1001,-1.1002,-1.1004,-1.0983,-1.0991,-1.0991,-1.1032,-1.1033,-1.1033]},{"header":{"parameterUnit":"m.s-1","parameterCategory":1,"la1":30.2991,"la2":30.254,"lo1":-89.0895,"lo2":-89.0444,"dy":0.0017,"dx":0.0017,"nx":28,"ny":28,"refTime":"2023-10-05T21:00:00:Z","depth":0,"parameterNumber":3,"parameterNumberName":"V-component_of_WINDS"},"data":[0,0,0,0,0,0,0,0,0,0,0,0,0,0,0,0,0,0,0,0,0,0,0,0,0,0,0,0,0,0,0,0,0,0,0,0,0,0,0,0,0,0,0,0,0,0,0,0,0,0,0,0,0,0,0,0,0,0,-0.8319,-0.8318,0,-0.8234,-0.8233,-0.8232,-0.8244,-0.8246,-0.8247,-0.8248,-0.8158,-0.8154,-0.815,0,0,0,0,0,0,0,0,0,0,0,0,0,-0.8489,-0.8486,-0.8319,-0.8318,-0.8317,-0.8234,-0.8233,-0.8232,-0.8244,-0.8246,-0.8247,-0.8249,-0.8159,-0.8154,-0.815,0,0,0,0,0,0,0,0,0,0,0,0,0,-0.8411,-0.8485,-0.8319,-0.8313,-0.8312,-0.8234,-0.8233,-0.8231,-0.8244,-0.8246,-0.8248,-0.825,-0.816,-0.8155,-0.8149,-0.8071,0,0,-0.8132,-0.813,0,0,0,0,0,0,0,0,-0.8415,-0.8404,-0.8315,-0.8313,-0.8312,-0.8252,-0.826,-0.8178,-0.8243,-0.8269,-0.8248,-0.8251,-0.8187,-0.8179,-0.8158,-0.8067,-0.8063,-0.8132,-0.8128,-0.8126,-0.8124,0,0,0,0,0,0,0,-0.8421,-0.8408,-0.8285,-0.8314,-0.8312,-0.8314,-0.8305,-0.8244,-0.8217,-0.8267,-0.8268,-0.8258,-0.8186,-0.8164,-0.8156,-0.8062,-0.8132,-0.8127,-0.8123,-0.8121,-0.7902,-0.79,0,0,0,0,0,0,-0.8428,-0.8413,-0.8288,-0.8283,-0.837,-0.8309,-0.8299,-0.8269,-0.8218,-0.8212,-0.8256,-0.8259,-0.8172,-0.8163,-0.8153,-0.8058,-0.8126,-0.812,-0.8117,-0.7904,-0.7901,-0.7899,0,0,0,0,0,0,-0.8432,-0.8417,-0.8291,-0.8348,-0.8332,-0.8304,-0.827,-0.8266,-0.8244,-0.8209,-0.8204,-0.8238,-0.8174,-0.8161,-0.8092,-0.8055,-0.8118,-0.8113,-0.7907,-0.7903,-0.79,-0.7868,0,0,0,0,0,0,-0.8437,-0.8418,-0.8389,-0.8347,-0.8329,-0.8232,-0.8267,-0.8263,-0.8234,-0.8237,-0.8191,-0.8186,-0.8175,-0.81,-0.8086,-0.8049,-0.8108,-0.791,-0.7906,-0.7901,-0.7872,-0.7864,-0.7857,0,0,0,0,0,-0.8443,-0.8383,-0.8387,-0.8372,-0.8292,-0.823,-0.822,-0.8209,-0.8231,-0.8201,-0.8179,-0.8187,-0.8062,-0.8093,-0.8077,-0.8038,-0.7913,-0.7907,-0.7902,-0.7876,-0.7865,-0.7857,0,0,0,0,0,0,-0.8419,-0.8377,-0.8382,-0.8307,-0.8272,-0.8232,-0.8194,-0.8198,-0.8156,-0.816,-0.8148,-0.8137,-0.8067,-0.8045,-0.8081,-0.7959,-0.799,-0.7981,-0.7976,-0.7966,-0.7958,-0.7964,-0.8104,0,0,0,0,0,-0.8406,-0.836,-0.8325,-0.8262,-0.8245,-0.8222,-0.8195,-0.819,-0.8153,-0.8138,-0.8111,-0.8074,-0.8026,-0.7995,-0.7949,-0.787,-0.7859,-0.7835,-0.7827,-0.7821,-0.7813,-0.7768,-0.7757,-0.7881,-0.7881,-0.7881,0,0,-0.8377,-0.8348,-0.8319,-0.8257,-0.8229,-0.8181,-0.821,-0.8158,-0.8122,-0.813,-0.8063,-0.8042,-0.7999,-0.7925,-0.789,-0.7905,-0.7776,-0.7814,-0.7809,-0.7804,-0.7762,-0.775,-0.7739,-0.7877,-0.7878,-0.7878,0,0,-0.8299,-0.8273,-0.8218,-0.819,-0.8149,-0.8134,-0.8121,-0.8081,-0.8067,-0.8,-0.8005,-0.7962,-0.788,-0.785,-0.7823,-0.7735,-0.774,-0.772,-0.7679,-0.7636,-0.7626,-0.7618,-0.7585,-0.7574,-0.7713,-0.7713,-0.7713,0,-0.8268,-0.8197,-0.8188,-0.8136,-0.8108,-0.8114,-0.8058,-0.8031,-0.7976,-0.7956,-0.7973,-0.7871,-0.7843,-0.7761,-0.774,-0.7718,-0.7702,-0.7725,-0.7629,-0.762,-0.7611,-0.7581,-0.7569,-0.7711,-0.7711,-0.7711,-0.7711,0,-0.816,-0.811,-0.807,-0.8019,-0.7986,-0.7932,-0.7914,-0.7882,-0.788,-0.7864,-0.7795,-0.7762,-0.771,-0.769,-0.7687,-0.7607,-0.7617,-0.7632,-0.7662,-0.7598,-0.7568,-0.7556,-0.7707,-0.7708,-0.7709,-0.7709,0,0,-0.8064,-0.801,-0.7995,-0.7971,-0.7927,-0.7888,-0.7833,-0.7783,-0.7756,-0.7718,-0.7671,-0.7602,-0.7616,-0.7586,-0.758,-0.7542,-0.7473,-0.7561,-0.756,-0.7545,-0.7383,-0.7372,-0.7358,-0.7477,-0.7475,-0.7473,-0.7386,0,-0.7982,-0.7887,-0.7878,-0.7793,-0.7746,-0.7752,-0.7705,-0.7672,-0.7655,-0.7613,-0.7594,-0.7545,-0.7566,-0.7548,-0.7512,-0.749,-0.744,-0.7496,-0.7432,-0.743,-0.7442,-0.7343,-0.7331,-0.725,-0.7375,-0.7373,-0.7371,0,-0.7873,-0.7833,-0.7743,-0.7705,-0.7685,-0.7643,-0.7596,-0.7556,-0.7518,-0.7509,-0.7476,-0.7475,-0.7418,-0.7451,-0.7372,-0.741,-0.7384,-0.7369,-0.7366,-0.7358,-0.7396,-0.7332,-0.7225,-0.7212,-0.7353,-0.7355,-0.7356,0,-0.7811,-0.7735,-0.7672,-0.7652,-0.7605,-0.7576,-0.7555,-0.7519,-0.749,-0.7449,-0.7429,-0.7382,-0.7356,-0.7318,-0.7304,-0.733,-0.7225,-0.7258,-0.7215,-0.7215,-0.7191,-0.7193,-0.7077,-0.7176,-0.7176,-0.7176,-0.7177,0,-0.772,-0.7664,-0.7644,-0.7604,-0.7542,-0.7532,-0.7471,-0.7451,-0.742,-0.7376,-0.7378,-0.7337,-0.7321,-0.7277,-0.7265,-0.7201,-0.7189,-0.7179,-0.7176,-0.7178,-0.718,-0.716,-0.7165,-0.7173,-0.7174,-0.7174,-0.7175,0,-0.764,-0.7624,-0.7555,-0.7518,-0.7507,-0.7463,-0.743,-0.7392,-0.7376,-0.7321,-0.7307,-0.7282,-0.723,-0.7213,-0.7149,-0.7142,-0.7067,-0.7069,-0.708,-0.7079,-0.7037,-0.7041,-0.6904,-0.6885,-0.6997,-0.6996,-0.6995,0,-0.7583,-0.754,-0.7499,-0.747,-0.7449,-0.7402,-0.7373,-0.7361,-0.733,-0.7284,-0.7251,-0.72,-0.7159,-0.7075,-0.7051,-0.7002,-0.7003,-0.6958,-0.6996,-0.6999,-0.7001,-0.7004,-0.6999,-0.6951,-0.695,-0.6949,-0.6948,0,-0.7482,-0.7476,-0.7434,-0.7388,-0.7353,-0.7317,-0.7281,-0.7258,-0.7241,-0.7206,-0.7153,-0.7121,-0.7057,-0.7006,-0.6957,-0.6934,-0.6938,-0.6937,-0.6924,-0.6925,-0.6933,-0.6928,-0.706,-0.694,-0.6941,-0.6941,-0.6942,-0.6942,-0.7411,-0.7374,-0.7338,-0.7291,-0.7264,-0.7231,-0.7193,-0.7173,-0.713,-0.7077,-0.7073,-0.7017,-0.6979,-0.6914,-0.6889,-0.6844,-0.6856,-0.6838,-0.6833,-0.6829,-0.6825,-0.6941,-0.6835,-0.6835,-0.6835,-0.6835,-0.6836,0,-0.731,-0.7288,-0.7244,-0.7195,-0.7158,-0.7166,-0.7128,-0.7095,-0.7046,-0.7012,-0.6971,-0.6911,-0.6861,-0.6833,-0.6784,-0.6753,-0.6753,-0.674,-0.6742,-0.6736,-0.6817,-0.6833,-0.6741,-0.6741,-0.6741,-0.6741,-0.6741,-0.6741,-0.7252,-0.719,-0.718,-0.7103,-0.7081,-0.7027,-0.7004,-0.6973,-0.6946,-0.6879,-0.6838,-0.6821,-0.6788,-0.6737,-0.6691,-0.6684,-0.6665,-0.6651,-0.6645,-0.6721,-0.6731,-0.674,-0.6754,-0.6647,-0.6647,-0.6567,-0.6567,-0.6566]}]]